Showing default

FLOCK 4Q 7, 58318

Orbit data source: Space-Track

FLOCK 4Q 7, 58318 is a payload satellite owned by Planet (US) in SSO that was launched on Sat, 11 Nov 2023 UTC via an FALCON 9 launch vehicle from the Air Force Western Test Range (AFWTR). Payload-class satellites include a variety of spacecraft equipped with specific instruments for various scientific and technological missions. These include communications satellites like Starlink; space stations such as the ISS; scientific satellites like the Hubble; Earth observation satellites from companies like Planet Labs, Umbra, and HawkEye 360; GPS; miniature CubeSats for education and research; and military/defense satellites.

Loading next visibility...
Identifier
58318, 2023-174BQ
Orbit
SSO
Country
Flag of USUS
Related business
Manufacturer
Planet
Mission
Operational Commercial Imaging
Bus & Motor
CUBESAT 3U, Unknown motor
Mass
5.7 kg wet, 5.7 kg dry
Launch date (UTC)
2023-11-11 (2 years ago)
Launch vehicle
FALCON 9
Launch site
Air Force Western Test Range (AFWTR)
Object type
Payload
Rocket body
Debris
Shape & HBR
Box + 2 Pan, 1.0 m
Radar Cross Section
0.072 m², Medium (>0.1 m² and < 1m²)

Expand to show TLE details & history
Last TLE update: 8 hours ago

TLE from 8 hours ago
0 FLOCK 4Q 7
1 58318U 23174BQ  25289.13497240  .00029850  00000-0  75032-3 0  9992
2 58318  97.4115  10.0402 0007472 295.5042  64.5431 15.39890743108009
Epoch: 2025-10-16T03:14Z
TLE epoch observation values (Epoch: 2025-10-16T03:14:21.615Z)
Latitude
0.00001°
Longitude
-63.44891°
Altitude
447.36 km
Speed
7.645 km/s
True Right ascension
00h 40m 09s
True Declination
0° 00' 00"
Sunlit
Object was in full shadow at epoch
Visualization orbit readout
Latitude
Unknown
Longitude
Unknown
Altitude
Unknown
Speed
Unknown
Apparent Right ascension
Unknown
Apparent Declination
Unknown
Sunlit
N/A
Visualization observer readout
Local Sidereal Time
05:40:27
Azimuth
Unknown
Elevation
Unknown
Doppler factor
Unknown
Orbital elements
Apogee altitude
448.469 km
Perigee altitude
438.275 km
Semi-major axis
6,821.509 km
Eccentricity
0.00075
Inclination
97.4115°
RAAN
10.0402°
Arg. of periapsis
295.5042°
True anomaly
64.62044°
Mean anomaly
64.5431°
Eccentric anomaly
64.58177°
Mean motion
3.85232 °/min
Orbital period
93.45 mins
BSTAR
0.00075032
Loading maneuver chart data...
Computing Atmospheric mass density...

Documentation

Showing up to 5 results
|